Location: Albany
(35.0000°S, 118.0000°E)
Time: 03:05:05
(UTC-04:00)

Tiangong - Pass Details

Date: 26 June 2021
Orbit: 373 x 386 km, 41.5° (Epoch: 31 July)

Event Time Altitude Azimuth Distance (km) Brightness Sun altitude
Rises 06:05:30 0° 250° (WSW) 2,273 5.8 -12.1°
Reaches altitude 10° 06:07:40 10° 258° (WSW) 1,411 4.9 -12.5°
Maximum altitude 06:10:40 38° 328° (NNW) 595 2.5 -13.1°
Drops below altitude 10° 06:13:37 10° 39° (NE) 1,390 3.7 -13.7°
Enters shadow 06:14:29 - 43° (NE) 1,729 4.1 -13.8°
